[[{"header":{"parameterUnit":"m.s-1","parameterCategory":1,"la1":30.2991,"la2":30.254,"lo1":-89.0895,"lo2":-89.0444,"dy":0.0017,"dx":0.0017,"nx":28,"ny":28,"refTime":"2025-08-18T09:00:00:Z","depth":0,"parameterNumber":2,"parameterNumberName":"U-component_of_WINDS"},"data":[0,0,0,0,0,0,0,0,0,0,0,0,0,0,0,0,0,0,0,0,0,0,0,0,0,0,0,0,0,0,0,0,0,0,0,0,0,0,0,0,0,0,0,0,0,0,0,0,0,0,0,0,0,0,0,0,0,0,-0.5116,-0.5116,0,-0.5124,-0.5124,-0.5124,-0.5093,-0.5092,-0.5091,-0.5091,-0.5099,-0.51,-0.5101,0,0,0,0,0,0,0,0,0,0,0,0,0,-0.5072,-0.5073,-0.5116,-0.5116,-0.5116,-0.5124,-0.5124,-0.5124,-0.5093,-0.5092,-0.5091,-0.509,-0.5099,-0.51,-0.5101,0,0,0,0,0,0,0,0,0,0,0,0,0,-0.5087,-0.5074,-0.5116,-0.5102,-0.51,-0.5124,-0.5124,-0.5124,-0.5094,-0.5092,-0.5091,-0.509,-0.5098,-0.51,-0.5102,-0.5139,0,0,-0.5106,-0.5107,0,0,0,0,0,0,0,0,-0.5086,-0.5089,-0.5104,-0.5103,-0.5101,-0.5106,-0.5112,-0.5129,-0.5094,-0.5096,-0.509,-0.5089,-0.5103,-0.5104,-0.5108,-0.5139,-0.514,-0.5107,-0.5108,-0.5108,-0.5109,0,0,0,0,0,0,0,-0.5085,-0.5088,-0.5119,-0.5104,-0.5102,-0.5094,-0.5095,-0.5115,-0.5107,-0.5096,-0.5094,-0.5095,-0.5102,-0.5107,-0.5108,-0.514,-0.5107,-0.5108,-0.5109,-0.511,-0.5199,-0.52,0,0,0,0,0,0,-0.5086,-0.5087,-0.5119,-0.5119,-0.509,-0.5096,-0.5097,-0.5106,-0.5107,-0.5105,-0.5096,-0.5094,-0.5105,-0.5106,-0.5108,-0.515,-0.5108,-0.511,-0.5111,-0.5197,-0.5199,-0.5201,0,0,0,0,0,0,-0.5085,-0.5089,-0.5118,-0.5103,-0.5106,-0.5098,-0.5109,-0.5107,-0.5112,-0.5107,-0.5105,-0.5103,-0.5104,-0.5106,-0.5131,-0.515,-0.5111,-0.5112,-0.5196,-0.5198,-0.52,-0.5236,0,0,0,0,0,0,-0.5084,-0.5089,-0.5104,-0.5103,-0.5107,-0.5141,-0.511,-0.5108,-0.5115,-0.5111,-0.5113,-0.5112,-0.5103,-0.5129,-0.5133,-0.5152,-0.5113,-0.5194,-0.5197,-0.5199,-0.5233,-0.5239,-0.5244,0,0,0,0,0,-0.5083,-0.5115,-0.5105,-0.5109,-0.5125,-0.5143,-0.5145,-0.5134,-0.5117,-0.5131,-0.5127,-0.5112,-0.5148,-0.5131,-0.5136,-0.5156,-0.5193,-0.5196,-0.5199,-0.523,-0.5238,-0.5244,0,0,0,0,0,0,-0.5119,-0.5114,-0.5104,-0.5136,-0.514,-0.5137,-0.5155,-0.5142,-0.5151,-0.5148,-0.5133,-0.5134,-0.5161,-0.5161,-0.5143,-0.519,-0.5167,-0.5171,-0.519,-0.5196,-0.5202,-0.5201,-0.5115,0,0,0,0,0,-0.513,-0.5145,-0.514,-0.5169,-0.5172,-0.5163,-0.517,-0.5161,-0.5165,-0.5166,-0.5165,-0.5168,-0.518,-0.5188,-0.5199,-0.5233,-0.5231,-0.5248,-0.5254,-0.5258,-0.5262,-0.5277,-0.5284,-0.5211,-0.5211,-0.5211,0,0,-0.5155,-0.5154,-0.5164,-0.5176,-0.5178,-0.5193,-0.5165,-0.5183,-0.5193,-0.5169,-0.5192,-0.519,-0.5193,-0.5222,-0.5235,-0.5223,-0.5282,-0.5262,-0.5266,-0.5267,-0.5281,-0.5288,-0.5294,-0.5213,-0.5213,-0.5212,0,0,-0.5206,-0.5208,-0.5231,-0.5233,-0.5236,-0.5229,-0.5235,-0.5234,-0.5231,-0.5254,-0.5235,-0.5247,-0.5269,-0.5271,-0.5275,-0.5324,-0.5309,-0.5328,-0.5357,-0.5372,-0.5378,-0.5383,-0.5398,-0.5404,-0.5332,-0.5332,-0.5332,0,-0.5236,-0.5258,-0.5245,-0.5263,-0.5268,-0.5246,-0.5268,-0.5271,-0.5277,-0.528,-0.5267,-0.5291,-0.5292,-0.532,-0.5331,-0.5336,-0.534,-0.5328,-0.5378,-0.5383,-0.5387,-0.5402,-0.5408,-0.5334,-0.5334,-0.5333,-0.5333,0,-0.5294,-0.5309,-0.5327,-0.5332,-0.534,-0.536,-0.5349,-0.5357,-0.5347,-0.5341,-0.5363,-0.5363,-0.5372,-0.5378,-0.5369,-0.5403,-0.5396,-0.538,-0.5357,-0.5396,-0.541,-0.5416,-0.5337,-0.5336,-0.5335,-0.5335,0,0,-0.537,-0.5365,-0.5372,-0.5373,-0.5373,-0.5384,-0.5403,-0.5411,-0.5418,-0.5422,-0.5436,-0.5453,-0.5438,-0.5442,-0.5433,-0.5446,-0.5482,-0.5429,-0.5428,-0.5437,-0.5518,-0.5529,-0.5536,-0.5472,-0.5474,-0.5474,-0.5517,0,-0.5419,-0.545,-0.5438,-0.5469,-0.5482,-0.546,-0.5475,-0.5476,-0.5471,-0.5481,-0.5475,-0.5486,-0.5467,-0.5469,-0.5481,-0.5475,-0.5498,-0.5472,-0.5484,-0.5485,-0.5483,-0.5543,-0.5555,-0.5596,-0.5523,-0.5524,-0.5524,0,-0.5482,-0.5487,-0.552,-0.5515,-0.5519,-0.5534,-0.5539,-0.5548,-0.5548,-0.5543,-0.5547,-0.5533,-0.555,-0.5526,-0.5547,-0.553,-0.5534,-0.5531,-0.5533,-0.5533,-0.5507,-0.5544,-0.5609,-0.5614,-0.5533,-0.5532,-0.5532,0,-0.5532,-0.5547,-0.5568,-0.557,-0.5565,-0.5575,-0.5574,-0.5572,-0.5577,-0.5581,-0.5584,-0.559,-0.5593,-0.5598,-0.5586,-0.557,-0.5608,-0.5584,-0.5603,-0.5604,-0.5612,-0.5612,-0.5678,-0.5617,-0.5616,-0.5616,-0.5616,0,-0.5588,-0.5608,-0.559,-0.5603,-0.5624,-0.5609,-0.563,-0.5626,-0.5625,-0.5636,-0.5617,-0.5628,-0.5611,-0.562,-0.561,-0.5628,-0.563,-0.5626,-0.5623,-0.5627,-0.5627,-0.5629,-0.5626,-0.5618,-0.5618,-0.5617,-0.5617,0,-0.5648,-0.5637,-0.5657,-0.565,-0.5649,-0.5665,-0.5658,-0.5669,-0.5662,-0.5676,-0.5678,-0.5666,-0.5675,-0.5663,-0.5671,-0.5665,-0.5689,-0.5682,-0.5688,-0.5686,-0.5706,-0.5703,-0.5774,-0.5782,-0.5717,-0.5718,-0.5718,0,-0.5684,-0.5699,-0.5692,-0.5698,-0.5697,-0.5707,-0.5711,-0.5695,-0.57,-0.57,-0.571,-0.5717,-0.5722,-0.5736,-0.5728,-0.5734,-0.5726,-0.5751,-0.5727,-0.573,-0.5725,-0.5724,-0.5724,-0.5755,-0.5756,-0.5757,-0.5757,0,-0.5749,-0.5741,-0.5748,-0.5752,-0.5757,-0.576,-0.5761,-0.5767,-0.575,-0.5756,-0.5764,-0.5768,-0.5775,-0.5781,-0.5784,-0.5781,-0.5766,-0.5765,-0.5769,-0.5773,-0.5775,-0.5773,-0.57,-0.5763,-0.5763,-0.5762,-0.5762,-0.5762,-0.5797,-0.5808,-0.5804,-0.5811,-0.581,-0.5811,-0.582,-0.5813,-0.5819,-0.5823,-0.5814,-0.5824,-0.5821,-0.5822,-0.5821,-0.5828,-0.5818,-0.5825,-0.5826,-0.5828,-0.583,-0.5775,-0.5829,-0.5829,-0.5829,-0.5828,-0.5828,0,-0.5859,-0.5855,-0.5862,-0.5863,-0.5868,-0.5852,-0.5852,-0.5857,-0.5866,-0.5865,-0.5869,-0.5877,-0.5882,-0.5874,-0.5878,-0.5884,-0.5877,-0.5886,-0.5885,-0.5884,-0.584,-0.5835,-0.5891,-0.5891,-0.5891,-0.5891,-0.5891,-0.5891,-0.5892,-0.5909,-0.5901,-0.5917,-0.5913,-0.5922,-0.5923,-0.5923,-0.5921,-0.593,-0.5935,-0.5929,-0.5924,-0.5926,-0.593,-0.5927,-0.5929,-0.594,-0.5934,-0.5894,-0.5887,-0.5882,-0.5877,-0.594,-0.5941,-0.5977,-0.5977,-0.5978]},{"header":{"parameterUnit":"m.s-1","parameterCategory":1,"la1":30.2991,"la2":30.254,"lo1":-89.0895,"lo2":-89.0444,"dy":0.0017,"dx":0.0017,"nx":28,"ny":28,"refTime":"2025-08-18T09:00:00:Z","depth":0,"parameterNumber":3,"parameterNumberName":"V-component_of_WINDS"},"data":[0,0,0,0,0,0,0,0,0,0,0,0,0,0,0,0,0,0,0,0,0,0,0,0,0,0,0,0,0,0,0,0,0,0,0,0,0,0,0,0,0,0,0,0,0,0,0,0,0,0,0,0,0,0,0,0,0,0,-1.9432,-1.9432,0,-1.9398,-1.9397,-1.9397,-1.9317,-1.9315,-1.9314,-1.9312,-1.9279,-1.9279,-1.928,0,0,0,0,0,0,0,0,0,0,0,0,0,-1.9428,-1.9429,-1.9432,-1.9432,-1.9431,-1.9398,-1.9397,-1.9397,-1.9317,-1.9315,-1.9313,-1.9311,-1.9278,-1.9279,-1.928,0,0,0,0,0,0,0,0,0,0,0,0,0,-1.9416,-1.9429,-1.9432,-1.9387,-1.9383,-1.9398,-1.9397,-1.9397,-1.9318,-1.9315,-1.9313,-1.931,-1.9278,-1.9279,-1.928,-1.9336,0,0,-1.9283,-1.9283,0,0,0,0,0,0,0,0,-1.9417,-1.9416,-1.9394,-1.939,-1.9386,-1.9359,-1.9384,-1.9377,-1.9318,-1.9343,-1.9312,-1.9309,-1.9307,-1.9306,-1.9305,-1.9335,-1.9333,-1.9283,-1.9284,-1.9284,-1.9284,0,0,0,0,0,0,0,-1.9417,-1.9417,-1.9418,-1.9394,-1.9389,-1.9369,-1.9364,-1.9382,-1.934,-1.934,-1.9334,-1.9331,-1.9305,-1.9304,-1.9304,-1.9333,-1.9283,-1.9284,-1.9285,-1.9285,-1.9406,-1.9408,0,0,0,0,0,0,-1.9425,-1.9418,-1.942,-1.9417,-1.9395,-1.9371,-1.9366,-1.937,-1.9339,-1.9332,-1.9333,-1.9328,-1.9304,-1.9303,-1.9302,-1.9365,-1.9284,-1.9285,-1.9286,-1.9403,-1.9406,-1.9409,0,0,0,0,0,0,-1.9425,-1.9426,-1.9421,-1.9416,-1.9414,-1.9374,-1.9379,-1.9371,-1.937,-1.9334,-1.9326,-1.9341,-1.9302,-1.9301,-1.9328,-1.9363,-1.9286,-1.9286,-1.94,-1.9404,-1.9407,-1.9493,0,0,0,0,0,0,-1.9425,-1.9426,-1.9447,-1.9417,-1.9415,-1.9448,-1.9381,-1.9372,-1.9372,-1.9364,-1.9339,-1.9332,-1.93,-1.9327,-1.9329,-1.9363,-1.9287,-1.9397,-1.9402,-1.9406,-1.9487,-1.9499,-1.951,0,0,0,0,0,-1.9425,-1.9473,-1.9449,-1.9449,-1.944,-1.945,-1.9448,-1.9409,-1.9375,-1.9396,-1.9372,-1.9333,-1.9359,-1.933,-1.9332,-1.9367,-1.9394,-1.94,-1.9406,-1.9481,-1.9497,-1.9509,0,0,0,0,0,0,-1.9509,-1.9468,-1.9441,-1.948,-1.9469,-1.9436,-1.9461,-1.9427,-1.9426,-1.9418,-1.937,-1.9365,-1.9399,-1.9385,-1.9355,-1.9419,-1.937,-1.9377,-1.9427,-1.9441,-1.9452,-1.9455,-1.9288,0,0,0,0,0,-1.9532,-1.9543,-1.9507,-1.9545,-1.9541,-1.9502,-1.9505,-1.9476,-1.9462,-1.9458,-1.9436,-1.9425,-1.943,-1.9435,-1.9438,-1.9484,-1.9477,-1.9509,-1.952,-1.953,-1.9536,-1.9559,-1.9573,-1.9428,-1.9428,-1.9428,0,0,-1.958,-1.9559,-1.9569,-1.9561,-1.9549,-1.9562,-1.9499,-1.9515,-1.9524,-1.946,-1.9484,-1.9468,-1.9452,-1.9489,-1.9504,-1.9479,-1.9574,-1.9537,-1.9545,-1.9546,-1.9566,-1.958,-1.9592,-1.9432,-1.9431,-1.9431,0,0,-1.9673,-1.9658,-1.9688,-1.9677,-1.9659,-1.9633,-1.964,-1.9612,-1.9599,-1.9622,-1.9574,-1.9584,-1.9594,-1.9585,-1.9581,-1.967,-1.9634,-1.9672,-1.9733,-1.9756,-1.9767,-1.9777,-1.9808,-1.982,-1.9678,-1.9679,-1.9679,0,-1.9735,-1.9751,-1.9708,-1.9727,-1.9725,-1.9667,-1.9696,-1.9688,-1.9672,-1.9672,-1.9644,-1.9655,-1.964,-1.9674,-1.9695,-1.9694,-1.9701,-1.9675,-1.9769,-1.9778,-1.9787,-1.9816,-1.9828,-1.9683,-1.9683,-1.9682,-1.9682,0,-1.9828,-1.984,-1.9867,-1.9852,-1.9853,-1.9877,-1.9838,-1.9844,-1.9814,-1.9791,-1.9815,-1.9795,-1.9793,-1.9798,-1.977,-1.9828,-1.9813,-1.9777,-1.9727,-1.9806,-1.9833,-1.9844,-1.969,-1.9689,-1.9687,-1.9686,0,0,-1.9974,-1.9934,-1.9945,-1.9937,-1.9912,-1.9921,-1.9942,-1.9939,-1.9945,-1.9936,-1.9953,-1.9962,-1.9929,-1.9925,-1.9895,-1.9915,-1.9986,-1.9877,-1.9876,-1.9898,-2.0048,-2.0075,-2.0089,-1.9962,-1.9964,-1.9965,-2.005,0,-2.0062,-2.0096,-2.0057,-2.0099,-2.011,-2.0054,-2.0073,-2.006,-2.0038,-2.0044,-2.002,-2.0028,-1.9984,-1.9981,-1.9998,-1.9974,-2.0016,-1.9967,-1.9977,-1.9978,-1.9983,-2.0103,-2.0132,-2.0213,-2.006,-2.0062,-2.0063,0,-2.0169,-2.0164,-2.0207,-2.0179,-2.0182,-2.0199,-2.0193,-2.0199,-2.0183,-2.0166,-2.0161,-2.0124,-2.0143,-2.0094,-2.0119,-2.0087,-2.0089,-2.0078,-2.008,-2.008,-2.0026,-2.0107,-2.0238,-2.025,-2.0079,-2.0078,-2.0077,0,-2.0271,-2.0275,-2.0301,-2.0296,-2.0264,-2.0277,-2.0264,-2.0246,-2.0246,-2.024,-2.024,-2.0237,-2.0236,-2.0234,-2.0198,-2.0165,-2.0228,-2.0176,-2.0214,-2.0215,-2.0231,-2.023,-2.0364,-2.0231,-2.0231,-2.0231,-2.0231,0,-2.0373,-2.0402,-2.0346,-2.0363,-2.0393,-2.0348,-2.0379,-2.036,-2.0344,-2.0356,-2.0307,-2.0319,-2.027,-2.0277,-2.0249,-2.0274,-2.0274,-2.0261,-2.0253,-2.0265,-2.0267,-2.0266,-2.026,-2.0234,-2.0233,-2.0233,-2.0232,0,-2.0492,-2.0457,-2.0481,-2.0448,-2.0441,-2.0464,-2.0436,-2.045,-2.0425,-2.044,-2.0441,-2.0402,-2.0407,-2.0371,-2.0369,-2.035,-2.0389,-2.0372,-2.0395,-2.0389,-2.043,-2.0427,-2.0569,-2.0585,-2.0442,-2.0443,-2.0444,0,-2.056,-2.0581,-2.0549,-2.0553,-2.0543,-2.055,-2.055,-2.0506,-2.0508,-2.049,-2.0506,-2.0507,-2.0506,-2.0517,-2.0489,-2.0487,-2.0469,-2.0519,-2.0469,-2.0481,-2.047,-2.047,-2.0471,-2.053,-2.0532,-2.0533,-2.0534,0,-2.0684,-2.0665,-2.0666,-2.0661,-2.0662,-2.0657,-2.0648,-2.0654,-2.0606,-2.061,-2.0615,-2.0614,-2.0612,-2.0614,-2.0606,-2.0593,-2.0556,-2.055,-2.0559,-2.0572,-2.0585,-2.0578,-2.0424,-2.0547,-2.0546,-2.0545,-2.0544,-2.0544,-2.078,-2.0795,-2.0775,-2.0778,-2.0766,-2.0759,-2.077,-2.0746,-2.0749,-2.0743,-2.0717,-2.0726,-2.0709,-2.0695,-2.0685,-2.0692,-2.0668,-2.0681,-2.0684,-2.0688,-2.0696,-2.0583,-2.069,-2.069,-2.069,-2.0689,-2.0689,0,-2.0901,-2.0885,-2.0888,-2.0877,-2.0879,-2.0843,-2.0831,-2.0835,-2.0844,-2.083,-2.0829,-2.0834,-2.0836,-2.0807,-2.0805,-2.0815,-2.0798,-2.0816,-2.0815,-2.0813,-2.0717,-2.071,-2.083,-2.083,-2.083,-2.083,-2.083,-2.083,-2.0965,-2.0989,-2.0967,-2.0985,-2.0969,-2.0977,-2.0973,-2.0966,-2.0955,-2.0962,-2.0963,-2.0944,-2.0924,-2.092,-2.0919,-2.0911,-2.0912,-2.0936,-2.0922,-2.0833,-2.082,-2.0807,-2.0799,-2.0937,-2.0937,-2.1017,-2.1018,-2.1018]}]]